Starlink 5492

operational
NORAD ID: 55331 Int'l Des: 2023-013 Owner: SPXS Country: US Constellation: starlink
LEOCIRCULAR

关于 Starlink 5492

正在加载描述...

实时位置

正在加载3D地球...

即将过境

高度历史

Altitude vs Time

uPlot chart will show altitude changes over time

两行轨道根数

1 55331U 23013A 25258.44710376 .00000236 00000-0 32561-4 0 9992
2 55331 43.0033 172.9613 0001147 267.9373 92.1338 15.02537609146422
Epoch: Sep 15, 2025 • Age: 12 hours

当前状态

高度 559.2 km
速度 7.58 km/s
星下点 -2.77°S, 17.36°E
发射日期 Jan 26, 2023
运行时间 2.6 years
类型 internet

技术详情

分类 Payload
质量 305.00 kg
干质量 290.00 kg
总质量 305.00 kg
长度 0.20 m
直径 2.80 m
跨度 9.00 m
形状 Box + pan
制造商 SPXS
平台类型 Starlink
阶段状态 In Orbit
所有者/国家 SPXS/US

大型星座

Loading constellations...